Date,TemperatureHighF,TemperatureAvgF,TemperatureLowF,DewpointHighF,DewpointAvgF,DewpointLowF,HumidityHigh,HumidityAvg,HumidityLow,PressureMaxIn,PressureMinIn,WindSpeedMaxMPH,WindSpeedAvgMPH,GustSpeedMaxMPH,PrecipitationSumIn
2013-9-1,93,77,68,75,70,67,99,82,48,29.63,29.55,6,2,9,0.00
2013-9-2,92,72,62,74,68,62,99,88,54,29.57,29.41,9,2,13,1.46
2013-9-3,84,68,62,64,60,56,97,76,44,29.65,29.52,4,2,8,0.01
2013-9-4,87,70,60,64,59,52,99,74,34,29.73,29.65,7,2,10,0.02
2013-9-5,63,63,62,62,62,61,98,96,93,29.70,29.66,2,1,5,0.00
2013-9-6,80,55,42,51,48,39,99,79,23,30.04,29.88,3,1,4,0.00
2013-9-7,83,61,46,61,54,46,99,81,39,29.89,29.64,3,1,5,0.00
2013-9-8,78,62,44,62,52,41,99,74,31,29.90,29.59,6,2,14,0.01
2013-9-9,87,59,41,60,48,41,99,74,24,29.99,29.81,6,2,8,0.00
2013-9-10,93,70,57,75,65,54,99,87,51,29.84,29.72,5,2,8,0.69
2013-9-11,71,70,69,70,70,69,99,98,98,29.79,29.77,3,2,5,0.00
2013-9-12,94,69,66,72,67,64,99,93,47,29.67,29.46,2,1,5,0.07
2013-9-13,66,63,61,66,62,60,99,97,92,29.49,29.43,2,1,5,0.00
2013-9-14,65,52,42,49,45,42,99,80,56,29.92,29.78,4,2,4,0.00
2013-9-15,74,60,46,55,52,45,97,77,47,29.94,29.83,2,1,2,0.02
2013-9-16,65,52,38,56,48,38,99,88,67,30.14,29.85,4,2,4,0.01
2013-9-17,78,53,38,45,42,38,99,73,27,30.25,30.10,4,1,4,0.01
2013-9-18,79,57,37,56,47,37,99,74,37,30.09,29.90,4,2,4,0.00
2013-9-19,93,61,41,59,50,41,99,76,32,29.94,29.79,3,1,3,0.00
2013-9-20,86,64,48,63,56,47,99,77,46,29.83,29.69,5,3,5,0.00
2013-9-21,85,68,55,62,57,53,98,72,37,29.69,29.39,9,4,18,0.21
2013-9-22,63,56,52,59,55,51,99,97,80,29.55,29.41,5,1,11,0.05
2013-9-26,79,63,48,59,54,48,99,75,44,30.08,29.99,4,2,4,0.00
2013-9-27,88,65,50,59,54,50,99,73,34,30.14,30.06,4,1,4,0.00
2013-9-28,93,66,52,59,55,51,98,75,30,30.28,30.15,2,1,2,0.00
2013-9-29,82,65,56,65,59,55,99,83,57,30.25,30.17,4,1,4,0.00
2013-9-30,80,66,58,66,61,58,99,85,63,30.11,30.06,2,1,2,0.00